Location: Zagreb
(45.8000°N, 16.0000°E)
Time: 20:32:22
(UTC+02:00)

SR - Pass Details

Date: 18 August 2020
Orbit: 583 x 873 km, 66.7° (Epoch: 28 September)

Event Time Altitude Azimuth Distance (km) Brightness Sun altitude
Rises 20:49:25 0° 218° (SW) 2,945 ? -8.9°
Reaches altitude 10° 20:51:46 10° 221° (SW) 2,001 ? -9.3°
Maximum altitude 20:56:13 69° 305° (NW) 650 ? -9.9°
Drops below altitude 10° 21:00:30 10° 29° (NNE) 1,921 ? -10.6°
Sets 21:02:43 0° 32° (NNE) 2,816 ? -10.9°
